This is the latest recevied weather packets stored in our database for station/object KF7ROW. If no packets are shown the sender has not sent any weather packets the latest 10 day(s).
| Time | Temp. | Humidity | Pressure | Rain* | Wind** | Luminosity | Snow |
|---|---|---|---|---|---|---|---|
| 1777777767 | 15° C | 85% | 1016.2 hPa | 0 mm | - | 7 W/m² | - |
| 1777777463 | 15° C | 84% | 1016.2 hPa | 0 mm | - | 10 W/m² | - |
| 1777777160 | 15° C | 84% | 1016.3 hPa | 0 mm | - | 15 W/m² | - |
| 1777776857 | 15° C | 84% | 1016.2 hPa | 0 mm | - | 20 W/m² | - |
| 1777776555 | 15° C | 84% | 1016.3 hPa | 0 mm | - | 26 W/m² | - |
| 1777776251 | 15° C | 83% | 1016.4 hPa | 0 mm | - | 33 W/m² | - |
| 1777775948 | 15.56° C | 83% | 1016.6 hPa | 0 mm | - | 39 W/m² | - |
| 1777775645 | 15° C | 84% | 1016.5 hPa | 0 mm | - | 45 W/m² | - |
| 1777775341 | 15° C | 83% | 1016.7 hPa | 0 mm | - | 54 W/m² | - |
| 1777775036 | 15° C | 83% | 1016.6 hPa | 0 mm | - | 65 W/m² | - |
| 1777774733 | 15.56° C | 83% | 1016.6 hPa | 0 mm | - | 70 W/m² | - |
| 1777774429 | 15.56° C | 83% | 1016.6 hPa | 0 mm | - | 74 W/m² | - |
| 1777774126 | 15.56° C | 83% | 1016.6 hPa | 0 mm | - | 84 W/m² | - |
| 1777773824 | 15.56° C | 80% | 1016.5 hPa | 0 mm | - | 86 W/m² | - |
| 1777773520 | 15° C | 83% | 1016.6 hPa | 0 mm | - | 80 W/m² | - |
| 1777773217 | 15.56° C | 83% | 1016.4 hPa | 0 mm | - | 82 W/m² | - |
| 1777772913 | 15.56° C | 82% | 1016.4 hPa | 0 mm | - | 87 W/m² | - |
| 1777772611 | 15.56° C | 81% | 1016.6 hPa | 0 mm | - | 96 W/m² | - |
| 1777772308 | 15.56° C | 80% | 1016.4 hPa | 0 mm | - | 139 W/m² | - |
| 1777772005 | 15.56° C | 81% | 1016.3 hPa | 0 mm | - | 136 W/m² | - |
| 1777771702 | 15.56° C | 82% | 1016.4 hPa | 0 mm | - | 151 W/m² | - |
| 1777771400 | 15.56° C | 81% | 1016.5 hPa | 0 mm | - | 137 W/m² | - |
| 1777771097 | 15.56° C | 80% | 1016.5 hPa | 0 mm | - | 207 W/m² | - |
| 1777770794 | 15.56° C | 81% | 1016.6 hPa | 0 mm | - | 254 W/m² | - |
| 1777770490 | 15.56° C | 81% | 1016.4 hPa | 0 mm | - | 286 W/m² | - |
* Rain latest hour (hover to see other rain measurements)
** Current wind speed in m/s (hover to see current wind gust speed)